Location: Sungai Bunut
(2.6333°N, 113.7333°E)
Time: 17:43:31
(UTC+00:00)

Transit 4A - Pass Details

Date: 10 December 2023
Orbit: 869 x 974 km, 66.8° (Epoch: 20 February)

Event Time Altitude Azimuth Distance (km) Brightness Sun altitude
Rises 22:52:07 0° 304° (NW) 3,469 10.2 6.8°
Reaches altitude 10° 22:56:04 10° 278° (W) 2,519 9.6 7.7°
Maximum altitude 22:58:41 13° 251° (WSW) 2,293 9.6 8.3°
Drops below altitude 10° 23:01:17 10° 224° (SW) 2,511 10.0 8.9°
Sets 23:05:15 0° 197° (SSW) 3,450 11.0 9.8°
